Home > Time Zones > World Clock > Weather > U.S.A. > Knox > Past weeks

Flag for U.S.A. Weather past 2 weeks in Knox, Indiana, U.S.A.

Now
38 °F

Clear.


Feels Like: 32 °F
Forecast: 33 / 51 °F
Wind: 8 mph from North

Location: Porter County Municipal Airport

Current Time: Apr 27, 2015 at 4:31:20 AM

Latest Report: Apr 27, 2015 at 3:56 AM


Visibility: 10 mi

Pressure: 30.03 "Hg

Humidity: 83%

Dew point: 33 °F

Location of KnoxLocation

Historic Weather in Knox — Graph

°F

Knox temperature yesterday

Maximum temperature yesterday: 52 °F (at 12:56 PM)
Minimum temperature yesterday: 34 °F (at 5:56 AM)
Average temperature yesterday: 43 °F

Past Weeks' High & Low Weather Summary

 TemperatureHumidityPressure
High76 °F (Apr 17, 1:56 PM)100% (Apr 19, 11:56 PM)30.29 "Hg (Apr 19, 11:56 PM)
Low28 °F (Apr 24, 5:56 AM)15% (Apr 24, 2:56 PM)29.26 "Hg (Apr 19, 11:56 PM)
Average51 °F58%29.94 "Hg
* Reported Apr 12 2:56 AM — Apr 27 2:56 AM, Knox, Weather by CustomWeather, © 2015

Note: Actual official high and low records may vary slightly from our data, if they occured in-between our weather recording intervals... More about our weather records

Advertising

Knox weather history for previous 24 hours

 ConditionsComfort  
Time TempWeatherWind HumidityBarometerVisibility
2:56 AM
Mon, Apr 27
38 °FClear.9 mph86%30.03 "Hg10 mi
1:56 AM39 °FClear.10 mph79%30.02 "Hg10 mi
12:56 AM39 °FClear.8 mph76%30.03 "Hg10 mi
11:56 PM
Sun, Apr 26
40 °FClear.8 mph70%30.02 "Hg10 mi
10:56 PM40 °FClear.10 mph68%30.01 "Hg10 mi
9:56 PM42 °FClear.9 mph55%30.01 "Hg10 mi
8:56 PM41 °FClear.7 mph58%30.00 "Hg10 mi
7:56 PM41 °FClear.7 mph60%30.01 "Hg10 mi
6:56 PM45 °FSunny.10 mph48%30.01 "Hg10 mi
5:56 PM48 °FSunny.13 mph48%30.00 "Hg10 mi
4:56 PM50 °FSunny.16 mph44%29.99 "Hg10 mi
3:56 PM50 °FSunny.14 mph46%30.00 "Hg10 mi
2:56 PM50 °FSunny.16 mph43%30.00 "Hg10 mi
1:56 PM51 °FSunny.16 mph39%30.00 "Hg10 mi
12:56 PM52 °FSunny.14 mph41%30.01 "Hg10 mi
11:56 AM51 °FSunny.10 mph48%30.01 "Hg10 mi
10:56 AM51 °FSunny.14 mph52%30.01 "Hg10 mi
9:56 AM49 °FSunny.13 mph52%30.01 "Hg10 mi
8:56 AM45 °FSunny.10 mph60%29.99 "Hg10 mi
7:56 AM41 °FSunny.10 mph65%29.98 "Hg10 mi
6:56 AM37 °FSunny.7 mph73%29.95 "Hg10 mi
5:56 AM34 °FSunny.6 mph82%29.93 "Hg10 mi
4:56 AM35 °FClear.6 mph82%29.90 "Hg10 mi
Weather by CustomWeather, © 2015

See weather overviewHow to use our weather pages